Montreal Mirabel, Quebec

11:48 PM EDT on September 21, 2017 (GMT -0400)
Montreal Mirabel

Weather History for CYMX - September, 2013

Change the Weather History Date:

Saturday, September 21, 2013

  Actual Average Record
Temperature  
Mean Temperature 62 °F -  
Max Temperature 66 °F 64 °F 80 °F (1998)
Min Temperature 57 °F 45 °F 37 °F (2006)
Degree Days  
Heating Degree Days 4    
Growing Degree Days 12 (Base 50)    
Moisture  
Dew Point 59 °F    
Average Humidity 91    
Maximum Humidity 100    
Minimum Humidity 77    
Precipitation  
Precipitation 0.00 in - - ()
Sea Level Pressure  
Sea Level Pressure 29.68 in    
Wind  
Wind Speed 4 mph ()    
Max Wind Speed 9 mph    
Max Gust Speed -    
Visibility 5.2 miles    
Events Rain    
Averages and records for this station are not official NWS values.
T = Trace of Precipitation, MM = Missing Value Source: Averaged Metar Reports

Daily Weather History Graph

Daily Weather History Graph

Search for Another Location

Airport or City:

Trip Planner

Search our weather history database for the weather conditions in past years. The results will help you decide how hot, cold, wet, or windy it might be!

Date:

Astronomy

Sep. 21, 2013 Rise Set
Actual Time 6:42 AM EDT 6:55 PM EDT
Civil Twilight 6:12 AM EDT 7:24 PM EDT
Nautical Twilight 5:37 AM EDT 7:59 PM EDT
Astronomical Twilight 5:01 AM EDT 8:35 PM EDT
Moon 7:54 PM EDT (9/21) 9:07 AM EDT (9/21)
Length of Visible Light 13h 12m
Length of Day
12h 13m
Waning Gibbous, 94% of the Moon is Illuminated
Sep 21
Waning Gibbous
Sep 26
Last Quarter
Oct 4
New
Oct 11
First Quarter
Oct 18
Full

Hourly Weather History & Observations

Time (EDT) Temp. Dew Point Humidity Pressure Visibility Wind Dir Wind Speed Gust Speed Precip Events Conditions
12:00 AM 62.6 °F 59.0 °F 88% 29.84 in 25.0 mi SSE 5.8 mph - N/A   Mostly Cloudy
1:00 AM 62.6 °F 57.2 °F 82% 29.83 in 25.0 mi SSE 6.9 mph - N/A   Scattered Clouds
2:00 AM 60.8 °F 55.4 °F 82% 29.82 in 25.0 mi Calm Calm - N/A   Scattered Clouds
3:00 AM 57.2 °F 55.4 °F 94% 29.80 in 25.0 mi East 2.3 mph - N/A   Partly Cloudy
4:00 AM 60.8 °F 53.6 °F 77% 29.78 in 25.0 mi SE 3.5 mph - N/A   Scattered Clouds
5:00 AM 60.8 °F 55.4 °F 82% 29.76 in 25.0 mi SE 4.6 mph - N/A   Mostly Cloudy
6:00 AM 59.0 °F 55.4 °F 88% 29.75 in 25.0 mi NE 2.3 mph - N/A   Overcast
7:00 AM 59.0 °F 57.2 °F 94% 29.74 in 25.0 mi Variable 2.3 mph - N/A   Overcast
8:00 AM 62.6 °F 57.2 °F 82% 29.71 in 20.0 mi SE 4.6 mph - N/A   Overcast
9:00 AM 62.6 °F 57.2 °F 82% 29.70 in 25.0 mi SSE 5.8 mph - N/A   Overcast
10:00 AM 64.4 °F 59.0 °F 83% 29.69 in 25.0 mi SE 6.9 mph - N/A   Overcast
10:24 AM 66.2 °F 59.0 °F 78% 29.69 in 25.0 mi SSE 6.9 mph - N/A Rain Light Rain Showers
11:00 AM 64.4 °F 59.0 °F 83% 29.69 in 25.0 mi SSE 3.5 mph - N/A Rain Light Rain Showers
12:00 PM 64.4 °F 60.8 °F 88% 29.68 in 8.0 mi South 2.3 mph - N/A Rain Light Rain Showers
12:48 PM 62.6 °F 60.8 °F 94% 29.67 in 4.0 mi West 2.3 mph - N/A Rain Light Rain Showers
1:00 PM 62.6 °F 62.6 °F 100% 29.66 in 3.0 mi WNW 2.3 mph - N/A Rain Light Rain Showers
1:19 PM 62.6 °F 60.8 °F 94% 29.66 in 1.5 mi SW 3.5 mph - N/A Rain Light Rain Showers
1:29 PM 62.6 °F 60.8 °F 94% 29.65 in 1.5 mi SW 3.5 mph - N/A Rain Light Rain Showers
2:00 PM 62.6 °F 62.6 °F 100% 29.63 in 2.0 mi SSW 2.3 mph - N/A Rain Light Rain Showers
3:00 PM 62.6 °F 62.6 °F 100% 29.63 in 1.5 mi SSW 4.6 mph - N/A Rain Light Rain Showers
4:00 PM 62.6 °F 62.6 °F 100% 29.62 in 1.8 mi South 4.6 mph - N/A Rain Light Rain Showers
5:00 PM 62.6 °F 62.6 °F 100% 29.60 in 2.5 mi SSW 3.5 mph - N/A Rain Light Rain Showers
6:00 PM 62.6 °F 62.6 °F 100% 29.60 in 3.0 mi WSW 5.8 mph - N/A Rain Light Rain Showers
7:00 PM 62.6 °F 62.6 °F 100% 29.60 in 2.5 mi SW 9.2 mph - N/A Rain Light Rain Showers
8:00 PM 62.6 °F 60.8 °F 94% 29.60 in 6.0 mi SW 5.8 mph - N/A Rain Light Rain Showers
9:00 PM 60.8 °F 59.0 °F 94% 29.60 in 6.0 mi SW 5.8 mph - N/A Rain Light Rain Showers
10:00 PM 59.0 °F 59.0 °F 100% 29.58 in 10.0 mi WNW 8.1 mph - N/A Rain Light Rain Showers
11:00 PM 59.0 °F 59.0 °F 100% 29.58 in 10.0 mi West 3.5 mph - N/A   Overcast